Location: Cahas Mountain Overlook
(37.0833°N, 80.1000°W)
Time: 18:20:42
(UTC-04:00)

SR - Pass Details

Date: 10 February 2026
Orbit: 572 x 849 km, 66.7° (Epoch: 12 March)

Event Time Altitude Azimuth Distance (km) Brightness Sun altitude
Rises 17:01:25 0° 313° (NW) 3,135 ? 9.1°
Reaches altitude 10° 17:04:24 10° 294° (WNW) 2,264 ? 8.6°
Maximum altitude 17:07:49 18° 253° (WSW) 1,831 ? 8.0°
Drops below altitude 10° 17:11:22 10° 212° (SSW) 2,365 ? 7.3°
Sets 17:14:35 0° 194° (SSW) 3,331 ? 6.8°
